TimeEDT,TemperatureF,Dew PointF,Humidity,Sea Level PressureIn,VisibilityMPH,Wind Direction,Wind SpeedMPH,Gust SpeedMPH,PrecipitationIn,Events,Conditions,WindDirDegrees,DateUTC
1:53 AM,48.9,43.0,80,29.63,10.0,WSW,9.2,-,0.00,,Overcast,250,2011-10-15 05:53:00
2:53 AM,50.0,41.0,71,29.62,10.0,WSW,8.1,-,N/A,,Overcast,250,2011-10-15 06:53:00
3:53 AM,48.9,42.1,77,29.63,10.0,SW,9.2,-,0.00,,Scattered Clouds,220,2011-10-15 07:53:00
4:53 AM,48.0,39.9,74,29.63,10.0,SW,8.1,-,N/A,,Partly Cloudy,230,2011-10-15 08:53:00
5:53 AM,48.0,39.0,71,29.64,10.0,SW,9.2,18.4,N/A,,Scattered Clouds,230,2011-10-15 09:53:00
6:53 AM,48.0,39.9,74,29.65,10.0,WSW,9.2,20.7,N/A,,Overcast,240,2011-10-15 10:53:00
7:53 AM,48.9,39.9,71,29.65,10.0,WSW,9.2,21.9,N/A,,Overcast,240,2011-10-15 11:53:00
10:53 AM,53.1,39.0,59,29.72,10.0,West,10.4,21.9,N/A,,Overcast,260,2011-10-15 14:53:00
11:53 AM,54.0,39.0,57,29.73,10.0,WSW,11.5,27.6,N/A,,Mostly Cloudy,250,2011-10-15 15:53:00
1:53 PM,57.9,37.0,46,29.75,10.0,WSW,15.0,28.8,N/A,,Mostly Cloudy,250,2011-10-15 17:53:00
2:53 PM,60.1,35.1,39,29.75,10.0,West,19.6,33.4,N/A,,Partly Cloudy,260,2011-10-15 18:53:00
3:53 PM,61.0,30.9,32,29.77,10.0,West,12.7,26.5,N/A,,Clear,260,2011-10-15 19:53:00
4:53 PM,61.0,28.9,30,29.78,10.0,WNW,9.2,24.2,N/A,,Clear,290,2011-10-15 20:53:00
5:53 PM,60.1,30.9,33,29.80,10.0,WNW,12.7,25.3,N/A,,Clear,290,2011-10-15 21:53:00
6:53 PM,57.9,30.9,36,29.82,10.0,West,10.4,17.3,N/A,,Clear,260,2011-10-15 22:53:00
7:53 PM,55.9,33.1,42,29.85,10.0,WSW,8.1,-,N/A,,Clear,250,2011-10-15 23:53:00
8:53 PM,53.1,34.0,48,29.86,10.0,WSW,4.6,-,N/A,,Clear,240,2011-10-16 00:53:00
9:53 PM,50.0,35.1,57,29.86,10.0,SW,5.8,-,N/A,,Clear,230,2011-10-16 01:53:00
10:53 PM,51.1,35.1,54,29.86,10.0,WSW,5.8,-,N/A,,Clear,240,2011-10-16 02:53:00
11:53 PM,48.9,36.0,61,29.88,10.0,SW,5.8,-,N/A,,Clear,230,2011-10-16 03:53:00